#datetime,building,power
2022-05-31T00:00:00,mfh,16.77
2022-05-31T00:01:00,mfh,17.39
2022-05-31T00:02:00,mfh,18.14
2022-05-31T00:03:00,mfh,16.87
2022-05-31T00:04:00,mfh,16.90
2022-05-31T00:05:00,mfh,16.25
2022-05-31T00:06:00,mfh,16.34
2022-05-31T00:07:00,mfh,16.14
2022-05-31T00:08:00,mfh,16.07
2022-05-31T00:09:00,mfh,16.91
2022-05-31T00:10:00,mfh,16.84
2022-05-31T00:11:00,mfh,16.86
2022-05-31T00:12:00,mfh,16.84
2022-05-31T00:13:00,mfh,16.11
2022-05-31T00:14:00,mfh,17.18
2022-05-31T00:15:00,mfh,16.09
2022-05-31T00:16:00,mfh,15.81
2022-05-31T00:17:00,mfh,16.51
2022-05-31T00:18:00,mfh,16.52
2022-05-31T00:19:00,mfh,16.56
2022-05-31T00:20:00,mfh,16.61
2022-05-31T00:21:00,mfh,15.82
2022-05-31T00:22:00,mfh,15.94
2022-05-31T00:23:00,mfh,15.89
2022-05-31T00:24:00,mfh,15.89
2022-05-31T00:25:00,mfh,16.43
2022-05-31T00:26:00,mfh,16.48
2022-05-31T00:27:00,mfh,16.51
2022-05-31T00:28:00,mfh,16.56
2022-05-31T00:29:00,mfh,15.86
2022-05-31T00:30:00,mfh,16.07
2022-05-31T00:31:00,mfh,15.94
2022-05-31T00:32:00,mfh,15.93
2022-05-31T00:33:00,mfh,16.70
2022-05-31T00:34:00,mfh,16.76
2022-05-31T00:35:00,mfh,16.69
2022-05-31T00:36:00,mfh,16.88
2022-05-31T00:37:00,mfh,16.16
2022-05-31T00:38:00,mfh,16.15
2022-05-31T00:39:00,mfh,16.15
2022-05-31T00:40:00,mfh,16.23
2022-05-31T00:41:00,mfh,16.85
2022-05-31T00:42:00,mfh,17.03
2022-05-31T00:43:00,mfh,17.09
2022-05-31T00:44:00,mfh,17.20
2022-05-31T00:45:00,mfh,17.22
2022-05-31T00:46:00,mfh,16.47
2022-05-31T00:47:00,mfh,16.21
2022-05-31T00:48:00,mfh,16.19
2022-05-31T00:49:00,mfh,16.21
2022-05-31T00:50:00,mfh,16.85
2022-05-31T00:51:00,mfh,16.88
2022-05-31T00:52:00,mfh,16.95
2022-05-31T00:53:00,mfh,17.68
2022-05-31T00:54:00,mfh,16.47
2022-05-31T00:55:00,mfh,16.77
2022-05-31T00:56:00,mfh,16.32
2022-05-31T00:57:00,mfh,16.30
2022-05-31T00:58:00,mfh,16.82
2022-05-31T00:59:00,mfh,16.83
2022-05-31T01:00:00,mfh,16.85
2022-05-31T01:01:00,mfh,16.80
2022-05-31T01:02:00,mfh,16.12
2022-05-31T01:03:00,mfh,16.09
2022-05-31T01:04:00,mfh,16.33
2022-05-31T01:05:00,mfh,16.41
2022-05-31T01:06:00,mfh,17.11
2022-05-31T01:07:00,mfh,17.05
2022-05-31T01:08:00,mfh,17.06
2022-05-31T01:09:00,mfh,17.09
2022-05-31T01:10:00,mfh,16.17
2022-05-31T01:11:00,mfh,16.56
2022-05-31T01:12:00,mfh,16.18
2022-05-31T01:13:00,mfh,16.82
2022-05-31T01:14:00,mfh,17.51
2022-05-31T01:15:00,mfh,17.48
2022-05-31T01:16:00,mfh,17.64
2022-05-31T01:17:00,mfh,17.55
2022-05-31T01:18:00,mfh,16.07
2022-05-31T01:19:00,mfh,15.86
2022-05-31T01:20:00,mfh,15.96
2022-05-31T01:21:00,mfh,15.95
2022-05-31T01:22:00,mfh,16.75
2022-05-31T01:23:00,mfh,16.65
2022-05-31T01:24:00,mfh,16.67
2022-05-31T01:25:00,mfh,16.62
2022-05-31T01:26:00,mfh,15.91
2022-05-31T01:27:00,mfh,16.08
2022-05-31T01:28:00,mfh,15.92
2022-05-31T01:29:00,mfh,15.89
2022-05-31T01:30:00,mfh,15.89
2022-05-31T01:31:00,mfh,16.62
2022-05-31T01:32:00,mfh,17.64
2022-05-31T01:33:00,mfh,16.56
2022-05-31T01:34:00,mfh,16.76
2022-05-31T01:35:00,mfh,16.32
2022-05-31T01:36:00,mfh,16.75
2022-05-31T01:37:00,mfh,16.29
2022-05-31T01:38:00,mfh,16.26
2022-05-31T01:39:00,mfh,16.91
2022-05-31T01:40:00,mfh,16.85
2022-05-31T01:41:00,mfh,16.86
2022-05-31T01:42:00,mfh,16.79
2022-05-31T01:43:00,mfh,16.13
2022-05-31T01:44:00,mfh,16.03
2022-05-31T01:45:00,mfh,16.02
2022-05-31T01:46:00,mfh,16.03
2022-05-31T01:47:00,mfh,16.59
2022-05-31T01:48:00,mfh,16.39
2022-05-31T01:49:00,mfh,16.35
2022-05-31T01:50:00,mfh,16.33
2022-05-31T01:51:00,mfh,15.66
2022-05-31T01:52:00,mfh,15.99
2022-05-31T01:53:00,mfh,15.68
2022-05-31T01:54:00,mfh,15.66
2022-05-31T01:55:00,mfh,16.30
2022-05-31T01:56:00,mfh,16.47
2022-05-31T01:57:00,mfh,16.43
2022-05-31T01:58:00,mfh,16.45
2022-05-31T01:59:00,mfh,15.77
2022-05-31T02:00:00,mfh,15.77
2022-05-31T02:01:00,mfh,15.77
2022-05-31T02:02:00,mfh,15.79
2022-05-31T02:03:00,mfh,16.56
2022-05-31T02:04:00,mfh,16.59
2022-05-31T02:05:00,mfh,16.58
2022-05-31T02:06:00,mfh,16.83
2022-05-31T02:07:00,mfh,16.13
2022-05-31T02:08:00,mfh,16.12
2022-05-31T02:09:00,mfh,16.19
2022-05-31T02:10:00,mfh,16.19
2022-05-31T02:11:00,mfh,16.78
2022-05-31T02:12:00,mfh,16.65
2022-05-31T02:13:00,mfh,16.66
2022-05-31T02:14:00,mfh,16.79
2022-05-31T02:15:00,mfh,16.82
2022-05-31T02:16:00,mfh,16.11
2022-05-31T02:17:00,mfh,16.20
2022-05-31T02:18:00,mfh,16.30
2022-05-31T02:19:00,mfh,17.00
2022-05-31T02:20:00,mfh,16.78
2022-05-31T02:21:00,mfh,16.82
2022-05-31T02:22:00,mfh,16.89
2022-05-31T02:23:00,mfh,17.72
2022-05-31T02:24:00,mfh,16.55
2022-05-31T02:25:00,mfh,16.49
2022-05-31T02:26:00,mfh,16.55
2022-05-31T02:27:00,mfh,16.52
2022-05-31T02:28:00,mfh,17.74
2022-05-31T02:29:00,mfh,19.50
2022-05-31T02:30:00,mfh,17.21
2022-05-31T02:31:00,mfh,17.21
2022-05-31T02:32:00,mfh,17.20
2022-05-31T02:33:00,mfh,16.33
2022-05-31T02:34:00,mfh,17.04
2022-05-31T02:35:00,mfh,17.04
2022-05-31T02:36:00,mfh,17.05
2022-05-31T02:37:00,mfh,17.10
2022-05-31T02:38:00,mfh,16.76
2022-05-31T02:39:00,mfh,16.46
2022-05-31T02:40:00,mfh,16.44
2022-05-31T02:41:00,mfh,16.43
2022-05-31T02:42:00,mfh,17.00
2022-05-31T02:43:00,mfh,16.92
2022-05-31T02:44:00,mfh,16.93
2022-05-31T02:45:00,mfh,16.95
2022-05-31T02:46:00,mfh,16.33
2022-05-31T02:47:00,mfh,16.33
2022-05-31T02:48:00,mfh,16.33
2022-05-31T02:49:00,mfh,16.31
2022-05-31T02:50:00,mfh,16.71
2022-05-31T02:51:00,mfh,16.71
2022-05-31T02:52:00,mfh,16.71
2022-05-31T02:53:00,mfh,16.74
2022-05-31T02:54:00,mfh,15.89
2022-05-31T02:55:00,mfh,15.88
2022-05-31T02:56:00,mfh,16.31
2022-05-31T02:57:00,mfh,15.89
2022-05-31T02:58:00,mfh,16.49
2022-05-31T02:59:00,mfh,16.59
2022-05-31T03:00:00,mfh,16.67
2022-05-31T03:01:00,mfh,16.68
2022-05-31T03:02:00,mfh,16.07
2022-05-31T03:03:00,mfh,16.06
2022-05-31T03:04:00,mfh,16.06
2022-05-31T03:05:00,mfh,16.05
2022-05-31T03:06:00,mfh,16.68
2022-05-31T03:07:00,mfh,16.89
2022-05-31T03:08:00,mfh,16.88
2022-05-31T03:09:00,mfh,16.89
2022-05-31T03:10:00,mfh,16.20
2022-05-31T03:11:00,mfh,16.35
2022-05-31T03:12:00,mfh,16.35
2022-05-31T03:13:00,mfh,16.41
2022-05-31T03:14:00,mfh,16.34
2022-05-31T03:15:00,mfh,17.07
2022-05-31T03:16:00,mfh,17.10
2022-05-31T03:17:00,mfh,17.12
2022-05-31T03:18:00,mfh,17.10
2022-05-31T03:19:00,mfh,16.42
2022-05-31T03:20:00,mfh,16.13
2022-05-31T03:21:00,mfh,16.17
2022-05-31T03:22:00,mfh,16.13
2022-05-31T03:23:00,mfh,18.05
2022-05-31T03:24:00,mfh,16.90
2022-05-31T03:25:00,mfh,16.88
2022-05-31T03:26:00,mfh,16.89
2022-05-31T03:27:00,mfh,16.12
2022-05-31T03:28:00,mfh,16.12
2022-05-31T03:29:00,mfh,15.97
2022-05-31T03:30:00,mfh,16.08
2022-05-31T03:31:00,mfh,16.69
2022-05-31T03:32:00,mfh,18.24
2022-05-31T03:33:00,mfh,18.86
2022-05-31T03:34:00,mfh,18.38
2022-05-31T03:35:00,mfh,17.69
2022-05-31T03:36:00,mfh,16.07
2022-05-31T03:37:00,mfh,16.12
2022-05-31T03:38:00,mfh,17.16
2022-05-31T03:39:00,mfh,16.93
2022-05-31T03:40:00,mfh,16.71
2022-05-31T03:41:00,mfh,16.74
2022-05-31T03:42:00,mfh,16.70
2022-05-31T03:43:00,mfh,16.09
2022-05-31T03:44:00,mfh,16.50
2022-05-31T03:45:00,mfh,16.78
2022-05-31T03:46:00,mfh,16.80
2022-05-31T03:47:00,mfh,17.46
2022-05-31T03:48:00,mfh,17.82
2022-05-31T03:49:00,mfh,16.70
2022-05-31T03:50:00,mfh,16.72
2022-05-31T03:51:00,mfh,15.86
2022-05-31T03:52:00,mfh,15.87
2022-05-31T03:53:00,mfh,15.77
2022-05-31T03:54:00,mfh,16.62
2022-05-31T03:55:00,mfh,16.50
2022-05-31T03:56:00,mfh,16.52
2022-05-31T03:57:00,mfh,16.58
2022-05-31T03:58:00,mfh,16.66
2022-05-31T03:59:00,mfh,16.75
2022-05-31T04:00:00,mfh,16.19
2022-05-31T04:01:00,mfh,16.16
2022-05-31T04:02:00,mfh,16.35
2022-05-31T04:03:00,mfh,16.54
2022-05-31T04:04:00,mfh,16.80
2022-05-31T04:05:00,mfh,16.73
2022-05-31T04:06:00,mfh,16.74
2022-05-31T04:07:00,mfh,16.73
2022-05-31T04:08:00,mfh,15.98
2022-05-31T04:09:00,mfh,16.21
2022-05-31T04:10:00,mfh,16.13
2022-05-31T04:11:00,mfh,16.09
2022-05-31T04:12:00,mfh,17.60
2022-05-31T04:13:00,mfh,16.91
2022-05-31T04:14:00,mfh,17.30
2022-05-31T04:15:00,mfh,17.01
2022-05-31T04:16:00,mfh,16.27
2022-05-31T04:17:00,mfh,16.43
2022-05-31T04:18:00,mfh,16.18
2022-05-31T04:19:00,mfh,16.18
2022-05-31T04:20:00,mfh,16.81
2022-05-31T04:21:00,mfh,16.63
2022-05-31T04:22:00,mfh,16.79
2022-05-31T04:23:00,mfh,16.81
2022-05-31T04:24:00,mfh,16.14
2022-05-31T04:25:00,mfh,16.05
2022-05-31T04:26:00,mfh,16.17
2022-05-31T04:27:00,mfh,16.18
2022-05-31T04:28:00,mfh,16.90
2022-05-31T04:29:00,mfh,16.80
2022-05-31T04:30:00,mfh,16.72
2022-05-31T04:31:00,mfh,16.80
2022-05-31T04:32:00,mfh,16.08
2022-05-31T04:33:00,mfh,16.51
2022-05-31T04:34:00,mfh,16.09
2022-05-31T04:35:00,mfh,16.04
2022-05-31T04:36:00,mfh,16.90
2022-05-31T04:37:00,mfh,16.68
2022-05-31T04:38:00,mfh,16.62
2022-05-31T04:39:00,mfh,16.95
2022-05-31T04:40:00,mfh,16.26
2022-05-31T04:41:00,mfh,16.20
2022-05-31T04:42:00,mfh,16.18
2022-05-31T04:43:00,mfh,16.10
2022-05-31T04:44:00,mfh,16.34
2022-05-31T04:45:00,mfh,16.82
2022-05-31T04:46:00,mfh,16.87
2022-05-31T04:47:00,mfh,17.05
2022-05-31T04:48:00,mfh,17.00
2022-05-31T04:49:00,mfh,16.32
2022-05-31T04:50:00,mfh,16.72
2022-05-31T04:51:00,mfh,16.31
2022-05-31T04:52:00,mfh,16.19
2022-05-31T04:53:00,mfh,16.93
2022-05-31T04:54:00,mfh,16.96
2022-05-31T04:55:00,mfh,16.88
2022-05-31T04:56:00,mfh,16.79
2022-05-31T04:57:00,mfh,16.07
2022-05-31T04:58:00,mfh,16.17
2022-05-31T04:59:00,mfh,16.59
2022-05-31T05:00:00,mfh,16.88
2022-05-31T05:01:00,mfh,35.41
2022-05-31T05:02:00,mfh,36.68
2022-05-31T05:03:00,mfh,36.41
2022-05-31T05:04:00,mfh,35.61
2022-05-31T05:05:00,mfh,35.80
2022-05-31T05:06:00,mfh,34.47
2022-05-31T05:07:00,mfh,34.45
2022-05-31T05:08:00,mfh,34.43
2022-05-31T05:09:00,mfh,35.20
2022-05-31T05:10:00,mfh,35.45
2022-05-31T05:11:00,mfh,35.57
2022-05-31T05:12:00,mfh,35.57
2022-05-31T05:13:00,mfh,36.10
2022-05-31T05:14:00,mfh,40.07
2022-05-31T05:15:00,mfh,40.37
2022-05-31T05:16:00,mfh,40.45
2022-05-31T05:17:00,mfh,40.98
2022-05-31T05:18:00,mfh,41.04
2022-05-31T05:19:00,mfh,40.95
2022-05-31T05:20:00,mfh,40.83
2022-05-31T05:21:00,mfh,40.03
2022-05-31T05:22:00,mfh,40.25
2022-05-31T05:23:00,mfh,39.73
2022-05-31T05:24:00,mfh,39.62
2022-05-31T05:25:00,mfh,39.67
2022-05-31T05:26:00,mfh,40.25
2022-05-31T05:27:00,mfh,40.19
2022-05-31T05:28:00,mfh,40.33
2022-05-31T05:29:00,mfh,40.33
2022-05-31T05:30:00,mfh,39.48
2022-05-31T05:31:00,mfh,39.69
2022-05-31T05:32:00,mfh,39.54
2022-05-31T05:33:00,mfh,39.34
2022-05-31T05:34:00,mfh,40.13
2022-05-31T05:35:00,mfh,40.13
2022-05-31T05:36:00,mfh,40.27
2022-05-31T05:37:00,mfh,40.24
2022-05-31T05:38:00,mfh,39.58
2022-05-31T05:39:00,mfh,39.91
2022-05-31T05:40:00,mfh,39.84
2022-05-31T05:41:00,mfh,39.85
2022-05-31T05:42:00,mfh,40.63
2022-05-31T05:43:00,mfh,40.49
2022-05-31T05:44:00,mfh,40.40
2022-05-31T05:45:00,mfh,40.42
2022-05-31T05:46:00,mfh,39.65
2022-05-31T05:47:00,mfh,39.60
2022-05-31T05:48:00,mfh,39.69
2022-05-31T05:49:00,mfh,39.72
2022-05-31T05:50:00,mfh,40.23
2022-05-31T05:51:00,mfh,40.34
2022-05-31T05:52:00,mfh,40.81
2022-05-31T05:53:00,mfh,40.58
2022-05-31T05:54:00,mfh,40.08
2022-05-31T05:55:00,mfh,40.02
2022-05-31T05:56:00,mfh,40.08
2022-05-31T05:57:00,mfh,40.00
2022-05-31T05:58:00,mfh,39.91
2022-05-31T05:59:00,mfh,40.63
2022-05-31T06:00:00,mfh,40.59
2022-05-31T06:01:00,mfh,40.65
2022-05-31T06:02:00,mfh,40.87
2022-05-31T06:03:00,mfh,39.93
2022-05-31T06:04:00,mfh,40.02
2022-05-31T06:05:00,mfh,39.93
2022-05-31T06:06:00,mfh,40.06
2022-05-31T06:07:00,mfh,40.80
2022-05-31T06:08:00,mfh,40.68
2022-05-31T06:09:00,mfh,40.83
2022-05-31T06:10:00,mfh,40.75
2022-05-31T06:11:00,mfh,40.73
2022-05-31T06:12:00,mfh,40.37
2022-05-31T06:13:00,mfh,40.69
2022-05-31T06:14:00,mfh,41.36
2022-05-31T06:15:00,mfh,42.16
2022-05-31T06:16:00,mfh,42.21
2022-05-31T06:17:00,mfh,42.12
2022-05-31T06:18:00,mfh,42.15
2022-05-31T06:19:00,mfh,40.71
2022-05-31T06:20:00,mfh,40.72
2022-05-31T06:21:00,mfh,40.53
2022-05-31T06:22:00,mfh,40.43
2022-05-31T06:23:00,mfh,40.99
2022-05-31T06:24:00,mfh,41.19
2022-05-31T06:25:00,mfh,41.15
2022-05-31T06:26:00,mfh,41.13
2022-05-31T06:27:00,mfh,40.41
2022-05-31T06:28:00,mfh,40.44
2022-05-31T06:29:00,mfh,40.54
2022-05-31T06:30:00,mfh,40.57
2022-05-31T06:31:00,mfh,41.23
2022-05-31T06:32:00,mfh,41.20
2022-05-31T06:33:00,mfh,41.21
2022-05-31T06:34:00,mfh,40.94
2022-05-31T06:35:00,mfh,40.81
2022-05-31T06:36:00,mfh,41.93
2022-05-31T06:37:00,mfh,42.08
2022-05-31T06:38:00,mfh,41.00
2022-05-31T06:39:00,mfh,41.59
2022-05-31T06:40:00,mfh,41.56
2022-05-31T06:41:00,mfh,41.54
2022-05-31T06:42:00,mfh,41.67
2022-05-31T06:43:00,mfh,41.79
2022-05-31T06:44:00,mfh,41.51
2022-05-31T06:45:00,mfh,41.01
2022-05-31T06:46:00,mfh,40.92
2022-05-31T06:47:00,mfh,40.94
2022-05-31T06:48:00,mfh,41.46
2022-05-31T06:49:00,mfh,41.58
2022-05-31T06:50:00,mfh,41.49
2022-05-31T06:51:00,mfh,41.50
2022-05-31T06:52:00,mfh,40.76
2022-05-31T06:53:00,mfh,40.84
2022-05-31T06:54:00,mfh,40.75
2022-05-31T06:55:00,mfh,40.88
2022-05-31T06:56:00,mfh,41.54
2022-05-31T06:57:00,mfh,41.37
2022-05-31T06:58:00,mfh,41.52
2022-05-31T06:59:00,mfh,41.37
2022-05-31T07:00:00,mfh,40.62
2022-05-31T07:01:00,mfh,41.26
2022-05-31T07:02:00,mfh,40.80
2022-05-31T07:03:00,mfh,40.87
2022-05-31T07:04:00,mfh,41.47
2022-05-31T07:05:00,mfh,41.26
2022-05-31T07:06:00,mfh,41.47
2022-05-31T07:07:00,mfh,41.62
2022-05-31T07:08:00,mfh,40.95
2022-05-31T07:09:00,mfh,41.63
2022-05-31T07:10:00,mfh,41.05
2022-05-31T07:11:00,mfh,41.13
2022-05-31T07:12:00,mfh,41.69
2022-05-31T07:13:00,mfh,42.81
2022-05-31T07:14:00,mfh,43.29
2022-05-31T07:15:00,mfh,43.35
2022-05-31T07:16:00,mfh,41.65
2022-05-31T07:17:00,mfh,41.50
2022-05-31T07:18:00,mfh,41.48
2022-05-31T07:19:00,mfh,41.41
2022-05-31T07:20:00,mfh,42.21
2022-05-31T07:21:00,mfh,42.18
2022-05-31T07:22:00,mfh,42.25
2022-05-31T07:23:00,mfh,42.79
2022-05-31T07:24:00,mfh,42.26
2022-05-31T07:25:00,mfh,42.20
2022-05-31T07:26:00,mfh,42.19
2022-05-31T07:27:00,mfh,42.22
2022-05-31T07:28:00,mfh,41.94
2022-05-31T07:29:00,mfh,42.58
2022-05-31T07:30:00,mfh,42.67
2022-05-31T07:31:00,mfh,43.50
2022-05-31T07:32:00,mfh,44.05
2022-05-31T07:33:00,mfh,42.95
2022-05-31T07:34:00,mfh,42.93
2022-05-31T07:35:00,mfh,42.24
2022-05-31T07:36:00,mfh,42.02
2022-05-31T07:37:00,mfh,42.58
2022-05-31T07:38:00,mfh,42.72
2022-05-31T07:39:00,mfh,43.87
2022-05-31T07:40:00,mfh,42.95
2022-05-31T07:41:00,mfh,43.60
2022-05-31T07:42:00,mfh,43.47
2022-05-31T07:43:00,mfh,41.55
2022-05-31T07:44:00,mfh,42.02
2022-05-31T07:45:00,mfh,42.53
2022-05-31T07:46:00,mfh,43.46
2022-05-31T07:47:00,mfh,42.57
2022-05-31T07:48:00,mfh,42.54
2022-05-31T07:49:00,mfh,41.93
2022-05-31T07:50:00,mfh,41.54
2022-05-31T07:51:00,mfh,41.48
2022-05-31T07:52:00,mfh,41.43
2022-05-31T07:53:00,mfh,42.23
2022-05-31T07:54:00,mfh,42.18
2022-05-31T07:55:00,mfh,42.21
2022-05-31T07:56:00,mfh,42.25
2022-05-31T07:57:00,mfh,42.26
2022-05-31T07:58:00,mfh,41.65
2022-05-31T07:59:00,mfh,42.16
2022-05-31T08:00:00,mfh,41.58
2022-05-31T08:01:00,mfh,41.79
2022-05-31T08:02:00,mfh,41.97
2022-05-31T08:03:00,mfh,42.08
2022-05-31T08:04:00,mfh,42.07
2022-05-31T08:05:00,mfh,41.83
2022-05-31T08:06:00,mfh,41.49
2022-05-31T08:07:00,mfh,41.28
2022-05-31T08:08:00,mfh,41.36
2022-05-31T08:09:00,mfh,41.59
2022-05-31T08:10:00,mfh,41.89
2022-05-31T08:11:00,mfh,41.87
2022-05-31T08:12:00,mfh,41.94
2022-05-31T08:13:00,mfh,41.98
2022-05-31T08:14:00,mfh,41.17
2022-05-31T08:15:00,mfh,41.19
2022-05-31T08:16:00,mfh,41.25
2022-05-31T08:17:00,mfh,41.95
2022-05-31T08:18:00,mfh,41.97
2022-05-31T08:19:00,mfh,41.93
2022-05-31T08:20:00,mfh,42.07
2022-05-31T08:21:00,mfh,42.15
2022-05-31T08:22:00,mfh,42.52
2022-05-31T08:23:00,mfh,42.71
2022-05-31T08:24:00,mfh,42.81
2022-05-31T08:25:00,mfh,42.67
2022-05-31T08:26:00,mfh,42.84
2022-05-31T08:27:00,mfh,42.16
2022-05-31T08:28:00,mfh,42.12
2022-05-31T08:29:00,mfh,42.13
2022-05-31T08:30:00,mfh,41.44
2022-05-31T08:31:00,mfh,41.31
2022-05-31T08:32:00,mfh,41.09
2022-05-31T08:33:00,mfh,41.12
2022-05-31T08:34:00,mfh,41.72
2022-05-31T08:35:00,mfh,41.87
2022-05-31T08:36:00,mfh,41.85
2022-05-31T08:37:00,mfh,42.50
2022-05-31T08:38:00,mfh,41.19
2022-05-31T08:39:00,mfh,41.75
2022-05-31T08:40:00,mfh,41.94
2022-05-31T08:41:00,mfh,42.62
2022-05-31T08:42:00,mfh,42.61
2022-05-31T08:43:00,mfh,42.58
2022-05-31T08:44:00,mfh,43.32
2022-05-31T08:45:00,mfh,42.57
2022-05-31T08:46:00,mfh,41.94
2022-05-31T08:47:00,mfh,42.81
2022-05-31T08:48:00,mfh,43.00
2022-05-31T08:49:00,mfh,44.09
2022-05-31T08:50:00,mfh,43.34
2022-05-31T08:51:00,mfh,44.01
2022-05-31T08:52:00,mfh,43.30
2022-05-31T08:53:00,mfh,43.21
2022-05-31T08:54:00,mfh,43.62
2022-05-31T08:55:00,mfh,42.95
2022-05-31T08:56:00,mfh,43.87
2022-05-31T08:57:00,mfh,44.45
2022-05-31T08:58:00,mfh,43.88
2022-05-31T08:59:00,mfh,44.51
2022-05-31T09:00:00,mfh,44.55
2022-05-31T09:01:00,mfh,44.43
2022-05-31T09:02:00,mfh,44.45
2022-05-31T09:03:00,mfh,43.87
2022-05-31T09:04:00,mfh,43.57
2022-05-31T09:05:00,mfh,43.42
2022-05-31T09:06:00,mfh,43.35
2022-05-31T09:07:00,mfh,44.09
2022-05-31T09:08:00,mfh,44.16
2022-05-31T09:09:00,mfh,44.08
2022-05-31T09:10:00,mfh,43.94
2022-05-31T09:11:00,mfh,43.28
2022-05-31T09:12:00,mfh,43.55
2022-05-31T09:13:00,mfh,43.41
2022-05-31T09:14:00,mfh,43.36
2022-05-31T09:15:00,mfh,43.95
2022-05-31T09:16:00,mfh,43.66
2022-05-31T09:17:00,mfh,43.64
2022-05-31T09:18:00,mfh,43.66
2022-05-31T09:19:00,mfh,42.54
2022-05-31T09:20:00,mfh,42.58
2022-05-31T09:21:00,mfh,42.79
2022-05-31T09:22:00,mfh,42.91
2022-05-31T09:23:00,mfh,43.50
2022-05-31T09:24:00,mfh,43.47
2022-05-31T09:25:00,mfh,43.58
2022-05-31T09:26:00,mfh,43.55
2022-05-31T09:27:00,mfh,43.64
2022-05-31T09:28:00,mfh,42.85
2022-05-31T09:29:00,mfh,42.78
2022-05-31T09:30:00,mfh,42.68
2022-05-31T09:31:00,mfh,42.75
2022-05-31T09:32:00,mfh,43.66
2022-05-31T09:33:00,mfh,44.12
2022-05-31T09:34:00,mfh,43.73
2022-05-31T09:35:00,mfh,43.83
2022-05-31T09:36:00,mfh,43.23
2022-05-31T09:37:00,mfh,43.36
2022-05-31T09:38:00,mfh,43.19
2022-05-31T09:39:00,mfh,43.28
2022-05-31T09:40:00,mfh,43.71
2022-05-31T09:41:00,mfh,44.26
2022-05-31T09:42:00,mfh,44.41
2022-05-31T09:43:00,mfh,44.25
2022-05-31T09:44:00,mfh,43.50
2022-05-31T09:45:00,mfh,44.00
2022-05-31T09:46:00,mfh,43.50
2022-05-31T09:47:00,mfh,44.39
2022-05-31T09:48:00,mfh,44.18
2022-05-31T09:49:00,mfh,44.47
2022-05-31T09:50:00,mfh,44.33
2022-05-31T09:51:00,mfh,44.22
2022-05-31T09:52:00,mfh,43.70
2022-05-31T09:53:00,mfh,43.55
2022-05-31T09:54:00,mfh,44.03
2022-05-31T09:55:00,mfh,43.70
2022-05-31T09:56:00,mfh,45.36
2022-05-31T09:57:00,mfh,44.22
2022-05-31T09:58:00,mfh,44.29
2022-05-31T09:59:00,mfh,44.38
2022-05-31T10:00:00,mfh,43.75
2022-05-31T10:01:00,mfh,43.79
2022-05-31T10:02:00,mfh,44.48
2022-05-31T10:03:00,mfh,43.85
2022-05-31T10:04:00,mfh,45.09
2022-05-31T10:05:00,mfh,45.44
2022-05-31T10:06:00,mfh,44.96
2022-05-31T10:07:00,mfh,45.37
2022-05-31T10:08:00,mfh,43.73
2022-05-31T10:09:00,mfh,43.74
2022-05-31T10:10:00,mfh,44.03
2022-05-31T10:11:00,mfh,43.38
2022-05-31T10:12:00,mfh,43.40
2022-05-31T10:13:00,mfh,44.08
2022-05-31T10:14:00,mfh,44.44
2022-05-31T10:15:00,mfh,44.22
2022-05-31T10:16:00,mfh,45.52
2022-05-31T10:17:00,mfh,43.65
2022-05-31T10:18:00,mfh,43.36
2022-05-31T10:19:00,mfh,43.80
2022-05-31T10:20:00,mfh,43.44
2022-05-31T10:21:00,mfh,44.09
2022-05-31T10:22:00,mfh,43.99
2022-05-31T10:23:00,mfh,43.14
2022-05-31T10:24:00,mfh,43.37
2022-05-31T10:25:00,mfh,42.87
2022-05-31T10:26:00,mfh,43.24
2022-05-31T10:27:00,mfh,43.27
2022-05-31T10:28:00,mfh,43.70
2022-05-31T10:29:00,mfh,43.77
2022-05-31T10:30:00,mfh,43.73
2022-05-31T10:31:00,mfh,44.38
2022-05-31T10:32:00,mfh,43.81
2022-05-31T10:33:00,mfh,43.02
2022-05-31T10:34:00,mfh,42.96
2022-05-31T10:35:00,mfh,43.05
2022-05-31T10:36:00,mfh,43.42
2022-05-31T10:37:00,mfh,43.69
2022-05-31T10:38:00,mfh,43.19
2022-05-31T10:39:00,mfh,43.31
2022-05-31T10:40:00,mfh,43.01
2022-05-31T10:41:00,mfh,42.43
2022-05-31T10:42:00,mfh,42.19
2022-05-31T10:43:00,mfh,42.16
2022-05-31T10:44:00,mfh,42.13
2022-05-31T10:45:00,mfh,42.81
2022-05-31T10:46:00,mfh,42.75
2022-05-31T10:47:00,mfh,42.75
2022-05-31T10:48:00,mfh,42.83
2022-05-31T10:49:00,mfh,42.11
2022-05-31T10:50:00,mfh,42.09
2022-05-31T10:51:00,mfh,42.06
2022-05-31T10:52:00,mfh,42.08
2022-05-31T10:53:00,mfh,42.83
2022-05-31T10:54:00,mfh,43.05
2022-05-31T10:55:00,mfh,42.60
2022-05-31T10:56:00,mfh,42.56
2022-05-31T10:57:00,mfh,42.75
2022-05-31T10:58:00,mfh,43.18
2022-05-31T10:59:00,mfh,43.63
2022-05-31T11:00:00,mfh,44.47
2022-05-31T11:01:00,mfh,43.58
2022-05-31T11:02:00,mfh,44.12
2022-05-31T11:03:00,mfh,43.99
2022-05-31T11:04:00,mfh,44.28
2022-05-31T11:05:00,mfh,43.95
2022-05-31T11:06:00,mfh,43.25
2022-05-31T11:07:00,mfh,43.24
2022-05-31T11:08:00,mfh,43.21
2022-05-31T11:09:00,mfh,43.23
2022-05-31T11:10:00,mfh,43.65
2022-05-31T11:11:00,mfh,43.80
2022-05-31T11:12:00,mfh,43.81
2022-05-31T11:13:00,mfh,43.65
2022-05-31T11:14:00,mfh,42.91
2022-05-31T11:15:00,mfh,43.01
2022-05-31T11:16:00,mfh,43.01
2022-05-31T11:17:00,mfh,43.08
2022-05-31T11:18:00,mfh,43.19
2022-05-31T11:19:00,mfh,43.15
2022-05-31T11:20:00,mfh,43.24
2022-05-31T11:21:00,mfh,43.15
2022-05-31T11:22:00,mfh,43.23
2022-05-31T11:23:00,mfh,43.63
2022-05-31T11:24:00,mfh,43.48
2022-05-31T11:25:00,mfh,43.58
2022-05-31T11:26:00,mfh,43.36
2022-05-31T11:27:00,mfh,43.36
2022-05-31T11:28:00,mfh,43.27
2022-05-31T11:29:00,mfh,43.71
2022-05-31T11:30:00,mfh,43.65
2022-05-31T11:31:00,mfh,43.00
2022-05-31T11:32:00,mfh,42.85
2022-05-31T11:33:00,mfh,42.86
2022-05-31T11:34:00,mfh,42.86
2022-05-31T11:35:00,mfh,43.57
2022-05-31T11:36:00,mfh,43.52
2022-05-31T11:37:00,mfh,43.64
2022-05-31T11:38:00,mfh,43.94
2022-05-31T11:39:00,mfh,43.04
2022-05-31T11:40:00,mfh,42.98
2022-05-31T11:41:00,mfh,43.07
2022-05-31T11:42:00,mfh,43.02
2022-05-31T11:43:00,mfh,43.97
2022-05-31T11:44:00,mfh,43.66
2022-05-31T11:45:00,mfh,43.63
2022-05-31T11:46:00,mfh,43.64
2022-05-31T11:47:00,mfh,42.98
2022-05-31T11:48:00,mfh,42.99
2022-05-31T11:49:00,mfh,42.95
2022-05-31T11:50:00,mfh,42.88
2022-05-31T11:51:00,mfh,43.53
2022-05-31T11:52:00,mfh,43.63
2022-05-31T11:53:00,mfh,43.65
2022-05-31T11:54:00,mfh,43.76
2022-05-31T11:55:00,mfh,43.00
2022-05-31T11:56:00,mfh,43.02
2022-05-31T11:57:00,mfh,42.81
2022-05-31T11:58:00,mfh,42.78
2022-05-31T11:59:00,mfh,43.45
2022-05-31T12:00:00,mfh,43.69
2022-05-31T12:01:00,mfh,43.50
2022-05-31T12:02:00,mfh,43.30
2022-05-31T12:03:00,mfh,42.52
2022-05-31T12:04:00,mfh,42.60
2022-05-31T12:05:00,mfh,42.49
2022-05-31T12:06:00,mfh,42.90
2022-05-31T12:07:00,mfh,43.24
2022-05-31T12:08:00,mfh,43.11
2022-05-31T12:09:00,mfh,43.96
2022-05-31T12:10:00,mfh,43.17
2022-05-31T12:11:00,mfh,42.53
2022-05-31T12:12:00,mfh,42.40
2022-05-31T12:13:00,mfh,42.39
2022-05-31T12:14:00,mfh,44.06
2022-05-31T12:15:00,mfh,43.83
2022-05-31T12:16:00,mfh,42.82
2022-05-31T12:17:00,mfh,42.81
2022-05-31T12:18:00,mfh,42.80
2022-05-31T12:19:00,mfh,42.87
2022-05-31T12:20:00,mfh,42.28
2022-05-31T12:21:00,mfh,41.26
2022-05-31T12:22:00,mfh,42.10
2022-05-31T12:23:00,mfh,41.21
2022-05-31T12:24:00,mfh,41.84
2022-05-31T12:25:00,mfh,41.76
2022-05-31T12:26:00,mfh,41.85
2022-05-31T12:27:00,mfh,41.76
2022-05-31T12:28:00,mfh,41.05
2022-05-31T12:29:00,mfh,41.82
2022-05-31T12:30:00,mfh,42.20
2022-05-31T12:31:00,mfh,42.68
2022-05-31T12:32:00,mfh,43.38
2022-05-31T12:33:00,mfh,43.65
2022-05-31T12:34:00,mfh,43.56
2022-05-31T12:35:00,mfh,43.51
2022-05-31T12:36:00,mfh,42.85
2022-05-31T12:37:00,mfh,42.81
2022-05-31T12:38:00,mfh,42.72
2022-05-31T12:39:00,mfh,42.73
2022-05-31T12:40:00,mfh,43.41
2022-05-31T12:41:00,mfh,44.19
2022-05-31T12:42:00,mfh,44.26
2022-05-31T12:43:00,mfh,44.38
2022-05-31T12:44:00,mfh,43.69
2022-05-31T12:45:00,mfh,43.09
2022-05-31T12:46:00,mfh,42.99
2022-05-31T12:47:00,mfh,42.71
2022-05-31T12:48:00,mfh,43.47
2022-05-31T12:49:00,mfh,43.65
2022-05-31T12:50:00,mfh,43.54
2022-05-31T12:51:00,mfh,43.53
2022-05-31T12:52:00,mfh,41.73
2022-05-31T12:53:00,mfh,41.43
2022-05-31T12:54:00,mfh,41.36
2022-05-31T12:55:00,mfh,41.88
2022-05-31T12:56:00,mfh,41.32
2022-05-31T12:57:00,mfh,42.15
2022-05-31T12:58:00,mfh,42.57
2022-05-31T12:59:00,mfh,42.81
2022-05-31T13:00:00,mfh,41.89
2022-05-31T13:01:00,mfh,41.86
2022-05-31T13:02:00,mfh,41.82
2022-05-31T13:03:00,mfh,41.77
2022-05-31T13:04:00,mfh,41.65
2022-05-31T13:05:00,mfh,42.99
2022-05-31T13:06:00,mfh,42.58
2022-05-31T13:07:00,mfh,42.29
2022-05-31T13:08:00,mfh,42.89
2022-05-31T13:09:00,mfh,41.88
2022-05-31T13:10:00,mfh,42.05
2022-05-31T13:11:00,mfh,42.08
2022-05-31T13:12:00,mfh,42.05
2022-05-31T13:13:00,mfh,42.57
2022-05-31T13:14:00,mfh,42.50
2022-05-31T13:15:00,mfh,42.79
2022-05-31T13:16:00,mfh,43.02
2022-05-31T13:17:00,mfh,42.25
2022-05-31T13:18:00,mfh,42.85